Weather Roundup
Issued by NWS Springfield, MO

Home | Current Version | Previous Version | Text Only | Print | Product List | Glossary On
Versions: 1 2 3 4 5 6 7 8 9 10 11 12 13 14 15 16 17 18 19 20 21 22 23 24 25 26 27 28 29 30 31 32 33 34 35 36 37 38 39 40 41 42 43 44 45 46 47 48 49 50
000
NZUS99 KSGF 240407
HRRSGF

HOURLY WEATHER
NATIONAL WEATHER SERVICE SPRINGFIELD MO
1100 PM CDT TUE MAY 23 2017

......SGF CWA......

CITY           SKY/WX    TMP DP  RH WIND       PRES   REMARKS
SPRINGFIELD    MOCLDY    57  47  69 W6        29.77S
JOPLIN         CLOUDY    57  50  77 NW8       29.81R
WEST PLAINS    CLOUDY    55  52  89 W3        29.75F
OSAGE BEACH    CLEAR     51  48  89 NW3       29.76S
BRANSON        MOCLDY    55  50  82 CALM      29.77F

......SURROUNDING SGF CWA......

CITY           SKY/WX    TMP DP  RH WIND       PRES   REMARKS
CHANUTE        CLOUDY    56  46  69 NW10      29.84R
PARSONS        CLOUDY    56  49  77 NW10      29.85R
COFFEYVILLE    CLOUDY    56  49  77 NW7       29.84S
EMPORIA        CLOUDY    53  46  77 NW7       29.86R
GROVE OK       CLOUDY    59  50  72 NW5       29.82S
ROGERS AR      CLOUDY    53  49  86 W6        29.81S
SILOAM SPRINGS CLOUDY    55  45  67 NW8       29.81S
HARRISON AR    PTCLDY    54  52  93 W5        29.77F
NEAR YELLVILLE PTCLDY    57  52  82 CALM      29.73S

......KANSAS AND MISSOURI......

CITY           SKY/WX    TMP DP  RH WIND       PRES   REMARKS
KANSAS CTY INT MOCLDY    53  47  79 NW7       29.79F
DOWNTOWN KC    CLOUDY    55  52  89 NW6       29.79S
COLUMBIA       CLEAR     54  48  80 NW7       29.74S
SEDALIA        CLOUDY    58  51  78 NW6       29.77S
ST JOSEPH      MOCLDY    53  48  83 NW9       29.80S
ST LOUIS       CLOUDY    63  56  78 CALM      29.70F
SPIRIT OF STL  LGT RAIN  59  59 100 SW3       29.70S
KIRKSVILLE     CLEAR     47  45  93 W5        29.74S
WICHITA        MOCLDY    56  46  69 NW13      29.89S
TOPEKA         CLOUDY    54  48  80 NW9       29.83S
OLATHE         CLOUDY    53  52  96 NW7       29.80S

......TENNESSEE......

CITY           SKY/WX    TMP DP  RH WIND       PRES   REMARKS
MEMPHIS        LGT RAIN  64  57  78 N7        29.68F
NASHVILLE      CLOUDY    70  57  63 CALM      29.66S

......ARKANSAS.......

CITY           SKY/WX    TMP DP  RH WIND       PRES   REMARKS
FAYETTEVILLE   MOCLDY    56  50  80 NW9       29.80R
FT SMITH       CLOUDY    62  54  74 W9        29.80R
LITTLE ROCK    CLOUDY    63  58  83 NW13      29.73S

......OKLAHOMA.......

CITY           SKY/WX    TMP DP  RH WIND       PRES   REMARKS
TULSA          CLOUDY    57  47  69 NW9       29.83R
PONCA CITY     MOCLDY    55  45  68 VRB6      29.88S
MCALESTER      PTCLDY    59  53  80 NW5       29.86R
OKLAHOMA CITY  PTCLDY    58  45  62 N8        29.90R

......IOWA............

CITY           SKY/WX    TMP DP  RH WIND       PRES   REMARKS
DES MOINES     PTCLDY    51  48  89 NW6       29.75S
QUAD CITIES    PTCLDY    53  48  83 W5        29.69F

......ILLINOIS........

CITY           SKY/WX    TMP DP  RH WIND       PRES   REMARKS
QUINCY         MOCLDY    54  50  86 NW5       29.71S
CHICAGO        LGT RAIN  56  53  90 E6        29.67F




USA.gov is the U.S. government's official web portal to all federal, state and local government web resources and services.